Location: Chuathbaluk
(61.5726°N, 159.2454°W)
Time: 23:45:39
(UTC+00:00)

Transit 4A - Pass Details

Date: 04 December 2020
Orbit: 864 x 980 km, 66.8° (Epoch: 20 January)

Event Time Altitude Azimuth Distance (km) Brightness Sun altitude
Rises 01:57:20 0° 311° (NW) 3,694 11.1 -3.8°
Reaches altitude 10° 02:00:03 10° 304° (NW) 2,737 10.6 -4.0°
Maximum altitude 02:05:58 41° 237° (WSW) 1,371 9.6 -4.5°
Drops below altitude 10° 02:11:45 10° 170° (S) 2,674 10.7 -5.0°
Sets 02:14:23 0° 163° (SSE) 3,598 11.3 -5.3°
